Home > Weather > Drammen > Past weeks

Flag for Norway Past Weather in Drammen, Norway — Yesterday and Last 2 Weeks

Now
59 °F

Scattered clouds.


Feels Like: 59 °F
Forecast: 48 / 70 °F
Wind: 5 mph from Southeast

Location: Statfjord B

Current Time: Jul 31, 2016 at 11:48:49 AM

Latest Report: Jul 31, 2016 at 11:20 AM


Visibility: N/A

Pressure: 29.62 "Hg

Humidity: 77%

Dew Point: 52 °F

Location of DrammenLocation

Past Weather in Drammen — Graph

°F

Drammen Temperature Yesterday

Maximum temperature yesterday: 59 °F (at 1:50 PM)
Minimum temperature yesterday: 54 °F (at 10:20 PM)
Average temperature yesterday: 56 °F

High & Low Weather Summary for the Past Weeks

 TemperatureHumidityPressure
High75 °F (Jul 21, 8:20 AM)100% (Jul 17, 2:50 AM)30.12 "Hg (Jul 17, 2:50 AM)
Low52 °F (Jul 16, 4:50 PM)54% (Jul 21, 8:20 AM)29.62 "Hg (Jul 28, 6:50 AM)
Average57 °F90%29.86 "Hg
* Reported Jul 16 10:20 AM — Jul 31 10:20 AM, Drammen, Weather by CustomWeather, © 2016

Note: Actual official high and low records may vary slightly from our data, if they occured in-between our weather recording intervals... More about our weather records

Advertising

Drammen Weather History for the Previous 24 Hours

Scroll right to see more
 ConditionsComfort  
Time TempWeatherWind HumidityBarometerVisibility
10:20 AM
Sun, Jul 31
59 °FPassing clouds.6 mph77%29.62 "HgN/A
9:50 AM57 °FScattered clouds.10 mph77%29.62 "HgN/A
9:20 AM55 °FPassing clouds.9 mph82%29.62 "HgN/A
8:50 AM55 °FPartly sunny.12 mph82%29.62 "HgN/A
8:20 AM55 °FBroken clouds.9 mph88%29.62 "HgN/A
7:50 AM54 °FPartly sunny.9 mph94%29.62 "HgN/A
7:20 AM54 °FBroken clouds.9 mph88%29.62 "HgN/A
6:50 AM55 °FScattered clouds.8 mph82%29.62 "HgN/A
6:20 AM54 °FPartly sunny.9 mph88%29.62 "HgN/A
5:50 AM54 °FPassing clouds.8 mph94%29.65 "HgN/A
5:20 AM54 °FPassing clouds.9 mph88%29.65 "HgN/A
4:50 AM54 °FPassing clouds.10 mph88%29.65 "HgN/A
4:20 AM54 °FPassing clouds.10 mph88%29.65 "HgN/A
3:50 AM54 °FPassing clouds.10 mph88%29.65 "HgN/A
3:20 AM54 °FPartly cloudy.10 mph88%29.65 "HgN/A
2:50 AM54 °FPassing clouds.10 mph88%29.65 "HgN/A
2:20 AM54 °FPartly cloudy.12 mph88%29.65 "HgN/A
1:50 AM54 °FPassing clouds.13 mph88%29.68 "HgN/A
1:20 AM54 °FSprinkles. Partly cloudy.10 mph94%29.68 "HgN/A
12:50 AM54 °FLight rain. Passing clouds.10 mph94%29.68 "Hg4 mi
12:20 AM55 °FPassing clouds.13 mph88%29.68 "HgN/A
11:50 PM
Sat, Jul 30
55 °FPassing clouds.14 mph88%29.68 "HgN/A
11:20 PM55 °FPartly cloudy.13 mph88%29.68 "HgN/A
10:50 PM55 °FPartly cloudy.12 mph88%29.68 "HgN/A
10:20 PM54 °FPartly sunny.12 mph94%29.68 "HgN/A
9:50 PM55 °FPartly sunny.12 mph88%29.68 "HgN/A
9:20 PM55 °FPassing clouds.12 mph88%29.68 "HgN/A
8:50 PM55 °FPartly sunny.12 mph88%29.68 "HgN/A
8:20 PM55 °FPartly sunny.10 mph88%29.68 "HgN/A
7:50 PM57 °FPartly sunny.10 mph82%29.68 "HgN/A
7:20 PM57 °FPartly sunny.10 mph77%29.68 "HgN/A
6:50 PM57 °FPassing clouds.12 mph77%29.68 "HgN/A
6:20 PM57 °FBroken clouds.13 mph77%29.68 "HgN/A
5:50 PM57 °FBroken clouds.12 mph82%29.68 "HgN/A
5:20 PM57 °FPartly sunny.12 mph77%29.68 "HgN/A
4:50 PM57 °FPassing clouds.12 mph82%29.68 "HgN/A
4:20 PM57 °FSprinkles. Broken clouds.10 mph82%29.68 "HgN/A
3:50 PM57 °FBroken clouds.13 mph77%29.68 "HgN/A
3:20 PM59 °FPartly sunny.9 mph77%29.68 "HgN/A
2:50 PM59 °FPartly sunny.8 mph72%29.68 "HgN/A
2:20 PM59 °FBroken clouds.8 mph72%29.68 "HgN/A
1:50 PM59 °FPassing clouds.7 mph77%29.68 "HgN/A
1:20 PM57 °FBroken clouds.6 mph82%29.68 "HgN/A
12:50 PM57 °FBroken clouds.8 mph82%29.68 "HgN/A
12:20 PM57 °FPartly sunny.8 mph77%29.68 "HgN/A
11:50 AM55 °FOvercast.8 mph88%29.65 "HgN/A
11:20 AM55 °FPartly sunny.10 mph88%29.65 "HgN/A
Weather by CustomWeather, © 2016

See weather overviewHow to use our weather pages